This demonstration page uses our WeatherBlox Daily Observations layout. Learn more.

Left ArrowRight Arrow

41.86663, -103.66717

Hourly Observations for September 14, 2020

Temp ( °F °C ) Dew Point ( °F °C ) Humidity (%) Winds ( mph kmh ) Pressure ( in mb ) Visibility ( mi km ) Precip ( " mm )
12:53 am 00:53 Clear 56 13.3 44 6.7 65 65 E 6 9 30.14 1021 10 16.0934 0 0
1:53 am 01:53 Clear 55 12.8 43 6.1 64 64 E 6 9 30.12 1020 10 16.0934 0 0
2:53 am 02:53 Clear 56 13.3 42 5.6 60 60 E 8 13 30.11 1020 10 16.0934 0 0
3:53 am 03:53 Clear 54 12.2 42 5.6 64 64 ENE 8 13 30.11 1020 10 16.0934 0 0
4:53 am 04:53 Clear 53 11.7 42 5.6 66 66 ENE 5 7 30.13 1020 10 16.0934 0 0
5:53 am 05:53 Clear 51 10.6 42 5.6 71 71 W 3 6 30.13 1020 10 16.0934 0 0
6:53 am 06:53 Sunny 49 9.4 42 5.6 77 77 Calm 30.18 1022 10 16.0934 0 0
7:53 am 07:53 Sunny 56 13.3 46 7.8 70 70 Calm 30.17 1022 10 16.0934 0 0
8:53 am 08:53 Sunny 65 18.3 46 7.8 51 51 ESE 6 9 30.17 1022 10 16.0934 0 0
9:53 am 09:53 Sunny 73 22.8 46 7.8 38 38 SE 7 11 30.16 1021 10 16.0934 0 0
10:53 am 10:53 Sunny 79 26.1 46 7.8 31 31 ESE 8 13 30.14 1021 10 16.0934 0 0
11:53 am 11:53 Sunny 89 31.7 39 3.9 17 17 SSW 16 26 30.1 1019 10 16.0934 0 0
12:53 pm 12:53 Sunny 92 33.3 37 2.8 14 14 S 16 26 30.07 1018 10 16.0934 0 0
1:53 pm 13:53 Sunny 93 33.9 35 1.7 13 13 SSW 9 15 30.04 1017 10 16.0934 0 0
2:53 pm 14:53 Sunny 93 33.9 35 1.7 13 13 VRB 3 6 30.01 1016 10 16.0934 0 0
3:53 pm 15:53 Sunny 92 33.3 34 1.1 13 13 ESE 3 6 30.01 1016 10 16.0934 0 0
4:53 pm 16:53 Sunny 92 33.3 33 0.6 12 12 Calm 30 1016 10 16.0934 0 0
5:53 pm 17:53 Sunny 89 31.7 38 3.3 16 16 SSE 13 20 30 1016 10 16.0934 0 0
6:53 pm 18:53 Sunny 80 26.7 40 4.4 24 24 SE 5 7 30.02 1017 10 16.0934 0 0
7:53 pm 19:53 Clear 70 21.1 43 6.1 38 38 ESE 7 11 30.04 1017 10 16.0934 0 0
8:53 pm 20:53 Clear 66 18.9 43 6.1 43 43 E 8 13 30.06 1018 10 16.0934 0 0
9:53 pm 21:53 Clear 65 18.3 42 5.6 43 43 E 10 17 30.06 1018 10 16.0934 0 0
10:53 pm 22:53 Clear 63 17.2 44 6.7 50 50 E 8 13 30.05 1018 10 16.0934 0 0
11:53 pm 23:53 Clear 59 15 45 7.2 60 60 E 9 15 30.03 1017 10 16.0934 0 0

Powered by AerisWeather